Location: Trebic
(49.2170°N, 15.8830°E)
Time: 23:19:56
(UTC+01:00)

Transit 4A - Pass Details

Date: 01 November 2020
Orbit: 862 x 982 km, 66.8° (Epoch: 28 November)

Event Time Altitude Azimuth Distance (km) Brightness Sun altitude
Rises 18:45:58 0° 305° (NW) 3,680 12.0 -21.8°
Reaches altitude 10° 18:49:43 10° 326° (NW) 2,741 10.8 -22.4°
Maximum altitude 18:53:33 16° 3° (N) 2,326 10.0 -23.1°
Enters shadow 18:55:57 13° 28° (NNE) 2,497 9.9 -23.5°
